Weather History for KMCD - September, 2013

Change the Weather History Date:

Saturday, September 28, 2013

  Actual Average Record
Temperature  
Mean Temperature 62 °F -  
Max Temperature 69 °F 58 °F 76 °F (1979)
Min Temperature 55 °F 45 °F 26 °F (1981)
Degree Days  
Heating Degree Days 3    
Growing Degree Days 12 (Base 50)    
Moisture  
Dew Point 53 °F    
Average Humidity 72    
Maximum Humidity 91    
Minimum Humidity 59    
Precipitation  
Precipitation 0.00 in - - ()
Sea Level Pressure  
Sea Level Pressure 30.05 in    
Wind  
Wind Speed 10 mph (SE)    
Max Wind Speed 15 mph    
Max Gust Speed 24 mph    
Visibility 10 miles    
Events      
Averages and records for this station are not official NWS values.
T = Trace of Precipitation, MM = Missing Value Source: NWS Daily Summary

Daily Weather History Graph

Daily Weather History Graph

Search for Another Location

Airport or City:

Trip Planner

Search our weather history database for the weather conditions in past years. The results will help you decide how hot, cold, wet, or windy it might be!

Date:

Astronomy

Sep. 28, 2013 Rise Set
Actual Time 7:33 AM EDT 7:23 PM EDT
Civil Twilight 7:03 AM EDT 7:53 PM EDT
Nautical Twilight 6:28 AM EDT 8:28 PM EDT
Astronomical Twilight 5:53 AM EDT 9:03 PM EDT
Moon 1:03 AM EDT (9/28) 3:57 PM EDT (9/28)
Length of Visible Light 12h 49m
Length of Day
11h 50m
Last Quarter, 36% of the Moon is Illuminated
Sep 28
Last Quarter
Oct 4
New
Oct 11
First Quarter
Oct 18
Full
Oct 26
Last Quarter

Hourly Weather History & Observations

Time (EDT) Temp. Dew Point Humidity Pressure Visibility Wind Dir Wind Speed Gust Speed Precip Events Conditions
12:17 AM 61.3 °F 51.4 °F 70% 30.15 in 10.0 mi SSE 12.7 mph 18.4 mph N/A   Clear
12:37 AM 61.3 °F 51.1 °F 69% 30.16 in 10.0 mi SSE 11.5 mph 19.6 mph N/A   Clear
12:57 AM 60.4 °F 51.3 °F 72% 30.15 in 10.0 mi SSE 10.4 mph 17.3 mph N/A   Clear
1:17 AM 59.9 °F 51.8 °F 75% 30.16 in 10.0 mi SSE 9.2 mph - N/A   Clear
1:37 AM 59.4 °F 52.2 °F 77% 30.16 in 10.0 mi SSE 10.4 mph - N/A   Clear
1:57 AM 59.4 °F 51.8 °F 76% 30.16 in 10.0 mi SSE 10.4 mph - N/A   Clear
2:17 AM 59.7 °F 50.9 °F 73% 30.16 in 10.0 mi SSE 9.2 mph - N/A   Clear
2:37 AM 59.9 °F 50.0 °F 70% 30.16 in 10.0 mi SSE 9.2 mph - N/A   Clear
2:57 AM 59.9 °F 49.3 °F 68% 30.15 in 10.0 mi SSE 11.5 mph - N/A   Clear
3:17 AM 59.4 °F 49.3 °F 69% 30.15 in 10.0 mi SSE 9.2 mph - N/A   Clear
3:37 AM 59.0 °F 49.1 °F 70% 30.15 in 10.0 mi SSE 11.5 mph 16.1 mph N/A   Clear
3:57 AM 59.0 °F 49.3 °F 70% 30.15 in 10.0 mi SSE 11.5 mph 18.4 mph N/A   Clear
4:18 AM 58.5 °F 49.6 °F 72% 30.15 in 10.0 mi SSE 10.4 mph 17.3 mph N/A   Clear
4:37 AM 58.1 °F 50.0 °F 74% 30.15 in 10.0 mi SSE 9.2 mph - N/A   Clear
4:57 AM 58.3 °F 50.2 °F 74% 30.15 in 10.0 mi SE 9.2 mph - N/A   Clear
5:18 AM 58.3 °F 50.9 °F 76% 30.15 in 10.0 mi SSE 11.5 mph 17.3 mph N/A   Clear
5:37 AM 57.6 °F 51.1 °F 79% 30.15 in 10.0 mi SE 6.9 mph - N/A   Clear
5:57 AM 57.2 °F 51.4 °F 81% 30.16 in 10.0 mi SSE 6.9 mph - N/A   Clear
6:18 AM 57.2 °F 51.6 °F 82% 30.16 in 10.0 mi SE 8.1 mph - N/A   Clear
6:37 AM 56.5 °F 51.8 °F 84% 30.16 in 10.0 mi SE 8.1 mph - N/A   Clear
6:57 AM 56.5 °F 52.0 °F 85% 30.16 in 10.0 mi SSE 9.2 mph - N/A   Clear
7:18 AM 56.1 °F 52.2 °F 87% 30.17 in 10.0 mi SSE 9.2 mph - N/A   Clear
7:37 AM 55.9 °F 52.7 °F 89% 30.17 in 10.0 mi SSE 6.9 mph - N/A   Clear
7:57 AM 55.8 °F 53.1 °F 91% 30.16 in 10.0 mi SE 5.8 mph - N/A   Clear
8:18 AM 56.1 °F 53.4 °F 91% 30.16 in 10.0 mi SE 5.8 mph - N/A   Clear
8:37 AM 57.0 °F 53.6 °F 88% 30.16 in 10.0 mi SSE 8.1 mph - N/A   Clear
8:58 AM 58.3 °F 53.8 °F 85% 30.15 in 10.0 mi SSE 9.2 mph - N/A   Clear
9:17 AM 58.6 °F 53.6 °F 83% 30.14 in 10.0 mi SE 8.1 mph - N/A   Clear
9:37 AM 58.8 °F 54.0 °F 84% 30.14 in 10.0 mi SSE 9.2 mph - N/A   Clear
9:58 AM 59.0 °F 54.3 °F 84% 30.14 in 10.0 mi SSE 9.2 mph - N/A   Clear
10:17 AM 59.5 °F 54.5 °F 83% 30.14 in 10.0 mi SSE 11.5 mph 18.4 mph N/A   Clear
10:37 AM 60.4 °F 54.3 °F 80% 30.13 in 10.0 mi SSE 12.7 mph 19.6 mph N/A   Clear
10:58 AM 60.6 °F 54.0 °F 79% 30.13 in 10.0 mi SSE 10.4 mph 18.4 mph N/A   Clear
11:17 AM 60.8 °F 53.8 °F 78% 30.13 in 10.0 mi SSE 9.2 mph 17.3 mph N/A   Clear
11:37 AM 61.7 °F 54.5 °F 77% 30.12 in 10.0 mi SSE 12.7 mph 18.4 mph N/A   Clear
11:58 AM 62.8 °F 54.5 °F 74% 30.11 in 10.0 mi SE 10.4 mph - N/A   Clear
12:17 PM 64.4 °F 54.9 °F 71% 30.10 in 10.0 mi SE 12.7 mph 17.3 mph N/A   Clear
12:37 PM 64.0 °F 56.1 °F 75% 30.09 in 10.0 mi East 6.9 mph - N/A   Clear
12:58 PM 63.0 °F 56.7 °F 80% 30.08 in 10.0 mi ESE 6.9 mph - N/A   Clear
1:17 PM 63.9 °F 56.3 °F 76% 30.07 in 10.0 mi ESE 8.1 mph - N/A   Clear
1:37 PM 64.0 °F 56.8 °F 77% 30.06 in 10.0 mi East 8.1 mph - N/A   Clear
1:57 PM 65.5 °F 57.0 °F 74% 30.05 in 10.0 mi East 4.6 mph - N/A   Clear
2:17 PM 65.8 °F 57.2 °F 74% 30.04 in 10.0 mi East 6.9 mph - N/A   Clear
2:38 PM 66.9 °F 57.0 °F 70% 30.02 in 10.0 mi SE 5.8 mph - N/A   Clear
2:57 PM 69.1 °F 55.8 °F 62% 30.01 in 10.0 mi ESE 4.6 mph - N/A   Clear
3:17 PM 68.9 °F 55.8 °F 63% 30.00 in 10.0 mi East 6.9 mph - N/A   Clear
3:38 PM 67.3 °F 56.1 °F 67% 29.99 in 10.0 mi East 3.5 mph - N/A   Clear
3:57 PM 68.4 °F 55.4 °F 63% 29.98 in 10.0 mi East 6.9 mph - N/A   Clear
4:17 PM 67.5 °F 55.6 °F 66% 29.97 in 10.0 mi ESE 6.9 mph - N/A   Clear
4:38 PM 67.3 °F 56.1 °F 67% 29.96 in 10.0 mi ESE 8.1 mph - N/A   Clear
4:57 PM 67.1 °F 55.9 °F 67% 29.95 in 10.0 mi ESE 6.9 mph - N/A   Clear
5:17 PM 67.5 °F 55.4 °F 65% 29.94 in 10.0 mi ESE 5.8 mph - N/A   Clear
5:38 PM 67.5 °F 55.2 °F 65% 29.94 in 10.0 mi ESE 4.6 mph - N/A   Clear
5:58 PM 65.1 °F 54.9 °F 69% 29.93 in 10.0 mi ESE 5.8 mph - N/A   Clear
6:17 PM 64.4 °F 54.7 °F 71% 29.93 in 10.0 mi SE 5.8 mph - N/A   Clear
6:38 PM 64.8 °F 54.5 °F 69% 29.93 in 10.0 mi SE 4.6 mph - N/A   Clear
6:57 PM 67.1 °F 54.3 °F 63% 29.93 in 10.0 mi SE 6.9 mph - N/A   Clear
7:18 PM 68.2 °F 53.6 °F 60% 29.93 in 10.0 mi SSE 6.9 mph - N/A   Clear
7:38 PM 67.5 °F 53.4 °F 61% 29.93 in 10.0 mi SSE 6.9 mph - N/A   Clear
7:57 PM 67.3 °F 53.6 °F 61% 29.92 in 10.0 mi SSE 6.9 mph - N/A   Clear
8:18 PM 67.8 °F 53.6 °F 60% 29.92 in 10.0 mi SSE 9.2 mph - N/A   Clear
8:38 PM 68.2 °F 53.6 °F 60% 29.91 in 10.0 mi SSE 8.1 mph 16.1 mph N/A   Clear
8:57 PM 68.0 °F 53.1 °F 59% 29.90 in 10.0 mi SE 12.7 mph 20.7 mph N/A   Clear
9:18 PM 67.6 °F 52.7 °F 59% 29.90 in 10.0 mi SSE 12.7 mph 20.7 mph N/A   Clear
9:37 PM 67.3 °F 52.7 °F 59% 29.89 in 10.0 mi SE 13.8 mph 23.0 mph N/A   Clear
9:57 PM 67.3 °F 52.3 °F 59% 29.88 in 10.0 mi SSE 15.0 mph 21.9 mph N/A   Clear
10:18 PM 67.1 °F 52.2 °F 59% 29.88 in 10.0 mi SSE 13.8 mph 20.7 mph N/A   Clear
10:37 PM 66.6 °F 52.2 °F 60% 29.88 in 10.0 mi SSE 11.5 mph 24.2 mph N/A   Mostly Cloudy
10:58 PM 66.6 °F 52.3 °F 60% 29.86 in 10.0 mi SSE 13.8 mph 23.0 mph N/A   Overcast
11:17 PM 66.2 °F 52.5 °F 61% 29.85 in 10.0 mi SSE 12.7 mph 21.9 mph N/A   Overcast
11:38 PM 65.5 °F 52.7 °F 63% 29.85 in 10.0 mi SSE 15.0 mph 21.9 mph N/A   Overcast
11:57 PM 65.7 °F 52.3 °F 62% 29.84 in 10.0 mi SSE 15.0 mph 21.9 mph N/A   Overcast